Weather History for Grants-Milan, NM

Change the Weather History Date:

Saturday, March 2, 2013

  Actual Average Record
Temperature  
Mean Temperature 41 °F -  
Max Temperature 66 °F 55 °F 75 °F (2009)
Min Temperature 16 °F 24 °F 3 °F (2002)
Degree Days  
Heating Degree Days 24    
Moisture  
Dew Point 15 °F    
Average Humidity 45    
Maximum Humidity 81    
Minimum Humidity 11    
Precipitation  
Precipitation 0.00 in - - ()
Sea Level Pressure  
Sea Level Pressure 30.39 in    
Wind  
Wind Speed 5 mph (NW)    
Max Wind Speed 15 mph    
Max Gust Speed 21 mph    
Visibility 10 miles    
Events      
Averages and records for this station are not official NWS values.
T = Trace of Precipitation, MM = Missing Value Source: NWS Daily Summary

Daily Weather History Graph

Daily Weather History Graph

Search for Another Location

Airport:

Trip Planner

Search our weather history database for the weather conditions in past years. The results will help you decide how hot, cold, wet, or windy it might be!

Date:

Astronomy

Mar. 02, 2013 Rise Set
Actual Time 6:39 AM MST 6:08 PM MST
Civil Twilight 6:14 AM MST 6:33 PM MST
Nautical Twilight 5:44 AM MST 7:03 PM MST
Astronomical Twilight 5:15 AM MST 7:32 PM MST
Moon 11:36 PM MST (3/2) 9:23 AM MST (3/2)
Length of Visible Light 12h 19m
Length of Day
11h 28m
Waning Gibbous, 73% of the Moon is Illuminated
Mar 2
Waning Gibbous
Mar 4
Last Quarter
Mar 11
New
Mar 19
First Quarter
Mar 27
Full

Hourly Weather History & Observations

Time (MST) Temp. Windchill Dew Point Humidity Pressure Visibility Wind Dir Wind Speed Gust Speed Precip Events Conditions
12:15 AM 27.0 °F - 16.9 °F 66% 30.42 in 10.0 mi Calm Calm - N/A   Clear
12:35 AM 24.8 °F 20.5 °F 14.0 °F 64% 30.44 in 10.0 mi SW 3.5 mph - N/A   Clear
12:55 AM 21.6 °F - 12.9 °F 69% 30.44 in 10.0 mi Calm Calm - N/A   Clear
1:15 AM 22.1 °F - 15.6 °F 76% 30.45 in 10.0 mi Calm Calm - N/A   Clear
1:35 AM 18.5 °F 13.3 °F 11.7 °F 75% 30.45 in 10.0 mi WNW 3.5 mph - N/A   Clear
1:55 AM 20.8 °F 16.0 °F 13.5 °F 73% 30.44 in 10.0 mi WNW 3.5 mph - N/A   Clear
2:15 AM 17.4 °F - 10.0 °F 73% 30.44 in 10.0 mi Calm Calm - N/A   Clear
2:35 AM 19.6 °F 14.5 °F 11.1 °F 70% 30.44 in 10.0 mi NNW 3.5 mph - N/A   Clear
2:55 AM 17.6 °F 10.7 °F 10.0 °F 72% 30.44 in 10.0 mi NNW 4.6 mph - N/A   Clear
3:15 AM 18.7 °F 9.5 °F 10.9 °F 72% 30.44 in 10.0 mi NNW 6.9 mph - N/A   Clear
3:35 AM 17.6 °F 9.3 °F 10.9 °F 75% 30.44 in 10.0 mi NNW 5.8 mph - N/A   Clear
4:15 AM 18.5 °F 10.4 °F 11.8 °F 75% 30.44 in 10.0 mi NW 5.8 mph - N/A   Clear
4:35 AM 16.9 °F 8.5 °F 11.3 °F 79% 30.45 in 10.0 mi NW 5.8 mph - N/A   Clear
4:55 AM 18.7 °F 9.5 °F 12.7 °F 78% 30.46 in 10.0 mi NW 6.9 mph - N/A   Clear
5:15 AM 18.0 °F 7.7 °F 12.6 °F 79% 30.46 in 10.0 mi NW 8.1 mph - N/A   Clear
5:35 AM 17.8 °F 8.5 °F 12.0 °F 78% 30.46 in 10.0 mi NW 6.9 mph - N/A   Clear
5:55 AM 17.2 °F 7.8 °F 12.0 °F 80% 30.46 in 10.0 mi NW 6.9 mph - N/A   Clear
6:15 AM 16.3 °F 5.7 °F 10.6 °F 78% 30.46 in 10.0 mi NW 8.1 mph - N/A   Clear
6:35 AM 16.9 °F 7.4 °F 12.0 °F 81% 30.47 in 10.0 mi NW 6.9 mph - N/A   Clear
6:55 AM 17.4 °F 8.0 °F 12.0 °F 79% 30.47 in 10.0 mi NW 6.9 mph - N/A   Clear
7:15 AM 20.3 °F 12.5 °F 13.6 °F 75% 30.47 in 10.0 mi NW 5.8 mph - N/A   Clear
7:35 AM 22.1 °F 13.7 °F 14.0 °F 71% 30.48 in 10.0 mi NNW 6.9 mph - N/A   Clear
7:55 AM 25.7 °F 18.0 °F 15.8 °F 66% 30.48 in 10.0 mi NNW 6.9 mph - N/A   Clear
8:15 AM 28.4 °F 22.2 °F 16.5 °F 61% 30.49 in 10.0 mi NW 5.8 mph - N/A   Clear
8:35 AM 32.0 °F 26.4 °F 18.3 °F 57% 30.49 in 10.0 mi NNW 5.8 mph - N/A   Clear
8:55 AM 34.9 °F 30.8 °F 18.9 °F 52% 30.49 in 10.0 mi NW 4.6 mph - N/A   Clear
9:15 AM 37.8 °F 31.8 °F 19.9 °F 49% 30.48 in 10.0 mi NW 8.1 mph - N/A   Clear
9:35 AM 41.2 °F 39.2 °F 19.9 °F 43% 30.47 in 10.0 mi NNW 3.5 mph - N/A   Clear
9:55 AM 45.0 °F 42.6 °F 20.8 °F 38% 30.46 in 10.0 mi NNW 4.6 mph - N/A   Clear
10:15 AM 48.6 °F - 21.6 °F 35% 30.46 in 10.0 mi NW 5.8 mph - N/A   Clear
10:35 AM 50.2 °F - 21.7 °F 33% 30.45 in 10.0 mi North 4.6 mph - N/A   Clear
10:55 AM 52.9 °F - 22.1 °F 30% 30.45 in 10.0 mi North 6.9 mph - N/A   Clear
11:35 AM 56.8 °F - 21.7 °F 26% 30.43 in 10.0 mi North 10.4 mph 16.1 mph N/A   Clear
11:55 AM 57.9 °F - 21.2 °F 24% 30.42 in 10.0 mi NNW 8.1 mph 18.4 mph N/A   Clear
12:15 PM 59.4 °F - 20.8 °F 23% 30.40 in 10.0 mi North 11.5 mph 17.3 mph N/A   Clear
12:35 PM 61.9 °F - 20.3 °F 20% 30.40 in 10.0 mi NNW 11.5 mph 19.6 mph N/A   Clear
12:55 PM 61.9 °F - 19.2 °F 19% 30.38 in 10.0 mi NNW 8.1 mph 18.4 mph N/A   Clear
1:15 PM 62.2 °F - 18.5 °F 18% 30.37 in 10.0 mi North 5.8 mph - N/A   Clear
1:35 PM 63.7 °F - 15.8 °F 16% 30.36 in 10.0 mi NE 3.5 mph - N/A   Clear
1:55 PM 64.4 °F - 15.8 °F 15% 30.35 in 10.0 mi NW 13.8 mph 18.4 mph N/A   Clear
2:15 PM 64.2 °F - 15.1 °F 15% 30.34 in 10.0 mi NW 9.2 mph 17.3 mph N/A   Clear
2:35 PM 66.2 °F - 14.7 °F 14% 30.34 in 10.0 mi North 11.5 mph 20.7 mph N/A   Clear
2:55 PM 66.0 °F - 14.2 °F 13% 30.33 in 10.0 mi NNW 11.5 mph 19.6 mph N/A   Clear
3:15 PM 66.0 °F - 13.3 °F 13% 30.32 in 10.0 mi NNW 3.5 mph 18.4 mph N/A   Clear
3:35 PM 66.9 °F - 12.2 °F 12% 30.32 in 10.0 mi NNW 15.0 mph - N/A   Clear
4:15 PM 66.2 °F - 11.7 °F 12% 30.31 in 10.0 mi NNW 9.2 mph 17.3 mph N/A   Clear
4:35 PM 65.3 °F - 8.1 °F 11% 30.31 in 10.0 mi NNW 6.9 mph 19.6 mph N/A   Clear
4:55 PM 63.9 °F - 9.3 °F 12% 30.30 in 10.0 mi NNW 5.8 mph - N/A   Clear
5:15 PM 63.5 °F - 9.5 °F 12% 30.30 in 10.0 mi NNW 6.9 mph - N/A   Clear
5:35 PM 62.2 °F - 10.4 °F 13% 30.30 in 10.0 mi NNW 4.6 mph - N/A   Clear
5:55 PM 58.5 °F - 10.4 °F 15% 30.31 in 10.0 mi WSW 5.8 mph - N/A   Clear
6:15 PM 56.5 °F - 19.6 °F 24% 30.31 in 10.0 mi West 6.9 mph - N/A   Clear
6:35 PM 54.3 °F - 20.3 °F 26% 30.31 in 10.0 mi WSW 10.4 mph - N/A   Clear
6:55 PM 51.1 °F - 18.5 °F 28% 30.31 in 10.0 mi Calm Calm - N/A   Clear
7:15 PM 46.2 °F - 18.0 °F 32% 30.30 in 10.0 mi Calm Calm - N/A   Clear
7:35 PM 45.0 °F - 18.5 °F 35% 30.30 in 10.0 mi Calm Calm - N/A   Clear
7:55 PM 44.8 °F - 18.1 °F 34% 30.29 in 10.0 mi Calm Calm - N/A   Clear
8:15 PM 46.6 °F - 17.8 °F 32% 30.29 in 10.0 mi Calm Calm - N/A   Clear
8:35 PM 44.8 °F - 18.1 °F 34% 30.30 in 10.0 mi Calm Calm - N/A   Clear
8:55 PM 41.2 °F - 16.2 °F 36% 30.30 in 10.0 mi Calm Calm - N/A   Clear
9:15 PM 34.9 °F 29.0 °F 12.7 °F 40% 30.30 in 10.0 mi NW 6.9 mph - N/A   Clear
9:35 PM 34.0 °F 29.8 °F 11.7 °F 40% 30.31 in 10.0 mi NW 4.6 mph - N/A   Clear
9:55 PM 33.4 °F 29.1 °F 11.5 °F 40% 30.31 in 10.0 mi WNW 4.6 mph - N/A   Clear
10:15 PM 32.5 °F 25.5 °F 14.2 °F 47% 30.31 in 10.0 mi WNW 8.1 mph - N/A   Clear
10:35 PM 33.1 °F 26.1 °F 14.0 °F 46% 30.30 in 10.0 mi WNW 8.1 mph - N/A   Clear
11:15 PM 33.3 °F 30.2 °F 13.3 °F 44% 30.30 in 10.0 mi WNW 3.5 mph - N/A   Clear
11:35 PM 29.8 °F 26.3 °F 15.6 °F 56% 30.29 in 10.0 mi NW 3.5 mph - N/A   Clear
11:55 PM 28.2 °F 22.0 °F 15.1 °F 58% 30.29 in 10.0 mi NNW 5.8 mph - N/A   Clear